Lid_Strength_Index
7 7 7 7 8 7 8 7 9 8 8 6 5 4 4 3 3 3 4 4 4 3 3 3 2 2 2 1 1 1 1 1 1 1 0 0 0 0 0 0 0 0 1 0
9 7 7 8 7 7 7 7 7 7 7 5 4 4 4 3 3 3 4 4 3 3 3 3 2 2 2 2 1 1 1 1 1 1 1 1 1 0 0 0 0 1 1 1
11 8 8 10 8 7 7 6 7 8 6 4 5 4 4 4 3 3 4 4 3 3 3 3 2 2 2 2 1 1 1 1 1 1 1 1 1 1 1 1 1 2 2 2
11 10 14 8 5 6 7 6 5 5 5 4 4 3 3 3 3 3 3 3 3 3 2 2 2 2 1 1 1 2 2 1 1 1 1 1 1 1 1 1 2 1 1 0
12 12 9 8 7 7 7 7 5 5 5 4 4 3 4 3 3 3 3 3 2 2 2 2 2 1 1 2 2 2 2 2 1 1 1 2 2 2 1 1 2 2 1 0
11 13 14 10 7 6 6 10 5 4 5 5 4 7 5 3 3 3 2 2 2 2 2 2 2 1 2 2 2 2 2 1 1 1 1 2 1 1 1 2 2 2 1 0
11 12 10 8 7 6 12 9 6 4 4 4 5 5 4 3 3 2 2 2 2 2 2 2 1 1 2 2 2 1 1 1 1 1 1 1 1 1 1 2 2 1 1 1
10 13 14 7 7 11 8 6 5 5 4 4 5 4 4 4 4 3 3 3 2 2 2 2 1 1 2 2 1 1 1 1 1 1 1 1 2 2 2 2 1 1 1 1
9 10 7 6 7 5 5 5 5 5 4 4 5 5 4 4 3 3 3 2 2 2 2 2 1 1 2 2 1 1 1 1 2 1 1 1 2 2 2 2 2 2 2 2
9 9 7 6 5 5 4 5 4 4 4 4 4 4 4 4 3 3 3 3 2 2 3 3 2 1 2 1 1 1 2 2 2 2 2 2 2 2 2 2 2 2 2 2
9 8 7 6 5 5 4 4 4 3 4 4 4 4 4 4 4 3 3 2 2 2 3 3 2 2 1 1 1 2 2 2 2 2 2 2 6 5 2 1 4 2 2 2
10 7 7 7 5 6 5 5 4 4 4 3 3 4 3 4 3 3 3 3 3 2 2 2 2 2 1 1 1 1 2 2 2 2 2 2 2 2 13 11 11 11 11 5
7 6 6 6 6 5 6 6 5 5 4 5 4 4 4 3 3 3 2 3 3 3 2 2 2 2 1 1 1 1 2 1 2 2 2 2 2 2 2 6 12 13 13 12
5 6 7 6 8 7 6 6 6 5 5 5 5 5 5 5 4 4 3 2 2 2 2 2 2 2 1 1 1 1 1 5 1 1 1 1 1 2 1 2 2 2 9 8
6 6 6 6 6 7 6 6 6 6 5 6 4 4 4 4 4 4 3 3 2 1 2 2 2 2 1 1 1 1 1 1 1 1 1 1 1 1 1 1 2 2 4 7
7 6 6 7 7 6 6 6 6 6 6 5 5 4 4 3 3 3 3 2 2 2 1 2 2 1 1 1 1 1 1 3 1 1 1 1 1 1 2 2 2 2 2 1
8 8 8 7 7 6 6 5 5 5 5 5 5 4 4 4 3 2 2 1 1 1 1 1 2 1 0 0 0 1 1 1 2 1 1 1 1 1 1 1 2 1 1 1
5 5 5 6 6 5 5 5 4 3 3 3 3 4 3 3 3 3 2 2 2 2 2 1 1 1 0 0 0 0 1 1 1 1 1 1 1 0 1 1 1 1 1 2
4 5 5 5 5 4 3 3 3 2 2 2 2 3 2 2 2 2 2 2 3 3 2 1 2 1 1 1 1 0 1 1 1 1 1 2 1 1 1 1 1 1 1 1
5 5 4 4 3 3 3 3 2 3 2 2 2 2 3 2 2 2 2 3 2 2 1 1 1 1 1 1 1 1 1 1 1 1 1 1 1 1 1 3 1 1 1 1
5 4 5 4 3 2 2 2 3 3 2 2 2 3 2 2 2 2 2 3 2 1 1 1 0 1 1 1 1 0 1 1 1 0 1 1 1 1 1 1 1 1 1 1
3 3 3 3 3 2 2 2 2 2 2 2 2 2 2 2 2 2 1 2 1 5 1 1 1 2 1 1 -0 -0 0 -0 -0 -0 0 0 1 1 1 1 1 1 1 1
3 2 2 2 3 2 2 2 2 2 2 2 2 2 2 2 2 2 3 1 0 2 0 0 2 2 2 -0 -1 -0 0 0 0 0 -0 0 0 0 1 1 1 0 0 0
2 2 2 2 1 2 3 2 2 1 1 1 1 1 1 2 1 1 1 2 3 2 1 1 1 3 4 -1 -1 -1 -0 -0 1 1 1 7 1 0 0 0 1 0 0 1
2 2 2 2 2 2 2 1 1 1 1 1 1 -0 0 0 1 1 0 0 3 2 0 3 3 3 0 -0 0 0 0 -0 0 0 0 0 1 1 1 0 0 0 0 -0
2 2 2 2 2 2 2 1 2 2 2 2 1 1 1 0 -0 0 -1 1 -0 1 0 0 0 0 0 0 0 0 0 -0 0 0 1 1 1 1 1 1 1 1 1 1
2 5 2 2 2 1 1 2 2 2 2 2 2 1 1 1 1 1 2 0 0 0 0 0 0 1 0 0 0 0 0 -0 2 0 0 1 1 1 1 1 1 1 1 1